Regional Weather Roundup
Issued by NWS

Home | Current Version | Previous Version | Graphics & Text | Print | Product List | Glossary Off
Versions: 1 2 3 4 5 6 7 8 9 10 11 12 13 14 15 16 17 18 19 20 21 22 23 24 25 26 27 28 29 30 31 32 33 34 35 36 37 38 39 40 41 42 43 44 45 46 47 48 49 50

761
ASUS43 KMPX 130610
RWRMN
WEATHER ROUNDUP FOR MINNESOTA
NATIONAL WEATHER SERVICE TWIN CITIES/CHANHASSEN MN
1200 AM CST SAT FEB 13 2016


NOTE: "FAIR" INDICATES FEW OR NO CLOUDS BELOW 12,000 FEET WITH NO
SIGNIFICANT WEATHER AND/OR OBSTRUCTIONS TO VISIBILITY. N/A MEANS
CURRENT SKY AND/OR WEATHER CONDITIONS ARE NOT AVAILABLE.

MNZ060>063-068>070-130700-
   Twin Cities Metro

CITY           SKY/WX    TMP DP  RH WIND       PRES   REMARKS
TWIN CITIES    CLOUDY     0 -12  57 NW12      30.62R WCI -17
6HR MIN TEMP:   0; 6HR MAX TEMP:   7;

ST PAUL        CLOUDY     1 -12  54 NW12      30.63R WCI -16
CRYSTAL        CLOUDY    -1 -12  59 NW8       30.61R WCI -15
BLAINE         CLOUDY     0  -9  65 NW7       30.60R WCI -13
LAKEVILLE      CLOUDY    -2 -11  65 NW7       30.60R WCI -16
EDEN PRAIRIE   CLOUDY    -1 -12  59 NW10      30.61R WCI -17
6HR MIN TEMP:  -1; 6HR MAX TEMP:   7;

SOUTH ST PAUL  CLOUDY     2 -11  54 NW7       30.61R WCI -11
LAKE ELMO      FAIR       0  -9  65 NW5       30.60R WCI -10
$$
MNZ001>005-007-008-013>017-022>024-027-028-130700-
   Northwest Minnesota

CITY           SKY/WX    TMP DP  RH WIND       PRES   REMARKS
BEMIDJI        CLOUDY   -18 -23  80 W5        30.57S WCI -31
HALLOCK        CLOUDY   -13 -18  77 CALM      30.65S
ROSEAU         PTCLDY   -13 -18  77 W7        30.62S WCI -29
WARROAD        CLOUDY   -17 -22  76 W7        30.61R WCI -33
THIEF RVR FALL CLOUDY   -11 -24  53 CALM      30.63R
CROOKSTON      CLOUDY    -9 -15  77 CALM      30.67F
FOSSTON          N/A    -24 -29  76 CALM      30.61S
DETROIT LAKES  CLOUDY    -9 -15  77 NW5       30.60S WCI -21
MOORHEAD       CLOUDY    -8 -13  77 CALM      30.67F
PARK RAPIDS    CLOUDY   -17 -22  78 NW7       30.56S WCI -33
MAHNOMEN       FAIR     -13 -18  80 CALM      30.62S
$$
MNZ006-009>011-018-025>026-130700-
   North Central Minnesota

CITY           SKY/WX    TMP DP  RH WIND       PRES   REMARKS
BAUDETTE       CLOUDY   -17 -24  70 NW9       30.57R WCI -36
FLAG ISLAND    CLOUDY   -17 -24  70 NW7       30.58S WCI -33
INTL FALLS     CLOUDY   -15 -21  74 W7        30.54R WCI -31
6HR MIN TEMP: -15; 6HR MAX TEMP:  -7;

WASKISH        CLOUDY   -15 -20  76 W7        30.58S WCI -31
LONGVILLE      CLOUDY   -11 -17  77 NW5       30.58R WCI -23
GRAND RAPIDS   CLOUDY   -11 -20  64 NW9       30.54R WCI -29
CRANE LAKE     CLOUDY   -20 -26  76 CALM      30.55S
ORR            CLOUDY   -15 -24  64 CALM      30.49R
COOK           CLOUDY   -15 -20  76 W3        30.52R
WALKER         FAIR     -14 -19  78 NW6       30.58S WCI -29
$$
MNZ012-019>021-037-130700-
   Northeast Minnesota

CITY           SKY/WX    TMP DP  RH WIND       PRES   REMARKS
DULUTH         CLOUDY    -9 -19  61 NW9       30.50R WCI -26
6HR MIN TEMP:  -9; 6HR MAX TEMP:  -1;

ELY            CLOUDY   -13 -18  77 NW5       30.47S WCI -25
HIBBING        CLOUDY   -14 -22  67 W8        30.52R WCI -31
EVELETH        CLOUDY    -8 -17  65 NW8       30.51R WCI -23
DULUTH HARBOR  PTCLDY    -2 -17  50 NW12      30.61R WCI -20
TWO HARBORS    CLEAR     -6 -17  59 NW5       30.50R WCI -17
SILVER BAY     CLEAR     -8 -18  59 CALM      30.48R
GRAND MARAIS     N/A     -6 -17  59 CALM      30.51R
G MARAIS ARPRT CLEAR    -15 -22  70 NW7G16    30.34R WCI -31
$$
MNZ029>031-032-039>041-046>048-054>057-064-130700-
   West Central Minnesota

CITY           SKY/WX    TMP DP  RH WIND       PRES   REMARKS
FERGUS FALLS   CLOUDY    -9 -15  77 CALM      30.68F
WHEATON        CLOUDY    -8 -11  84 CALM      30.68S
MORRIS         CLOUDY    -8 -11  84 NW5       30.63F WCI -19
ALEXANDRIA     CLOUDY    -9 -16  71 NW7       30.60R WCI -24
ELBOW LAKE     FAIR      -7 -10  84 NW5       30.63F WCI -18
WADENA         CLOUDY   -13 -18  77 W5        30.59R WCI -25
GLENWOOD       CLOUDY    -9 -15  77 NW5       30.61R WCI -21
APPLETON       CLOUDY    -6 -11  77 NW6       30.67R WCI -18
BENSON         CLOUDY    -6 -11  77 CALM      30.64R
ORTONVILLE     CLOUDY    -8 -15  71 NW3       30.65S
MADISON        CLOUDY    -4 -11  71 NW6       30.67R WCI -16
WILLMAR        FAIR      -2  -8  78 NW9       30.64R WCI -18
$$
MNZ033>034-036-042>043-049>051-058-059-130700-
   Central Minnesota

CITY           SKY/WX    TMP DP  RH WIND       PRES   REMARKS
ST CLOUD       CLOUDY    -6 -15  65 NW9       30.61R WCI -23
6HR MIN TEMP:  -6; 6HR MAX TEMP:   4;

SAUK CENTRE    FAIR      -8 -15  74 NW7       30.62R WCI -23
PAYNESVILLE    CLOUDY    -6 -13  70 NW6       30.63R WCI -18
AITKIN         CLOUDY    -8 -18  59 CALM      30.57R
PINE RIVER     CLOUDY   -11 -17  77 CALM      30.60S
BRAINERD       CLOUDY    -9 -17  68 NW5       30.59R WCI -20
STAPLES        CLOUDY   -15 -20  76 W5        30.60R WCI -27
LONG PRAIRIE   FAIR      -9 -15  77 NW6       30.60R WCI -23
LITTLE FALLS   CLOUDY    -8 -15  71 NW3       30.63R
LITCHFIELD     CLOUDY    -2 -11  65 NW12      30.63R WCI -20
BUFFALO        CLOUDY    -3 -12  66 W5        30.64R WCI -14
MAPLE LAKE     CLOUDY    -3 -11  70 NW7       30.63R WCI -17
$$
MNZ037-044-045-052-053-130700-
   East Central Minnesota

CITY           SKY/WX    TMP DP  RH WIND       PRES   REMARKS
PRINCETON      CLOUDY    -4 -11  71 W6        30.60R WCI -16
MORA           CLOUDY    -4 -15  59 N8        30.60S WCI -19
CAMBRIDGE      CLOUDY     0 -13  55 CALM      30.58S
RUSH CITY      MOCLDY    -3 -15  56 NW8       30.60R WCI -18
MOOSE LAKE     CLOUDY    -6 -17  59 NW5       30.57R WCI -17
HINCKLEY       FAIR      -4 -15  59 NW8       30.58R WCI -19
CLOQUET        CLOUDY    -9 -18  64 W7        30.53R WCI -24
MCGREGOR       CLOUDY    -8 -17  65 NW6       30.57R WCI -21
$$
MNZ071>073-080-081-089-090-097-098-130700-
   Southwest Minnesota

CITY           SKY/WX    TMP DP  RH WIND       PRES   REMARKS
MONTEVIDEO     CLOUDY    -6  -9  84 NW5       30.68R WCI -17
GRANITE FALLS  CLOUDY    -2  -7  80 W12       30.67S WCI -19
CANBY          CLOUDY    -3  -8  79 NW5       30.66S WCI -13
MARSHALL       CLOUDY    -5 -10  79 NW9       30.64S WCI -22
REDWOOD FALLS  CLOUDY    -2  -7  79 NW9       30.64S WCI -18
OLIVIA         CLOUDY     0  -8  71 NW10      30.63S WCI -17
PIPESTONE      CLOUDY    -2 -13  60 NE6       30.57R WCI -14
WINDOM         CLOUDY    -4  -9  77 NW7       30.59F WCI -18
WORTHINGTON    CLOUDY    -6 -11  77 N7        30.58F WCI -20
JACKSON        CLOUDY    -4  -9  77 NW10      30.59F WCI -21
TRACY          CLOUDY    -3  -8  79 NW7       30.62S WCI -16
SLAYTON        CLOUDY    -6 -10  81 N8        30.59S WCI -21
$$
MNZ065>067-074>077-082>085-091>093-130700-
   South Central Minnesota

CITY           SKY/WX    TMP DP  RH WIND       PRES   REMARKS
MANKATO        CLOUDY     0  -9  65 NW9       30.61R WCI -16
NEW ULM        CLOUDY    -2  -9  71 NW13      30.62S WCI -21
ST JAMES       CLOUDY    -2  -8  78 W7        30.64R WCI -16
FAIRMONT       CLOUDY     0  -8  71 NW12      30.59S WCI -18
GLENCOE        CLOUDY     0  -8  70 NW7       30.62R WCI -13
FARIBAULT      CLOUDY    -2 -11  65 W6        30.60R WCI -14
OWATONNA       CLOUDY    -2 -11  65 W8        30.59R WCI -17
WASECA         CLOUDY     0  -9  65 NW6       30.61R WCI -12
ALBERT LEA     CLOUDY     0  -9  65 NW5       30.57R WCI -10
$$
MNZ078>079-086>088-094>096-130700-
   Southeast Minnesota

CITY           SKY/WX    TMP DP  RH WIND       PRES   REMARKS
ROCHESTER      CLOUDY    -3 -12  65 NW14      30.54R WCI -22
6HR MIN TEMP:  -3; 6HR MAX TEMP:   4;

RED WING       CLOUDY    -6 -15  65 N2        30.59R
STANTON        CLOUDY    -3 -13  62 NW5       30.59R WCI -13
DODGE CENTER   CLOUDY    -2 -11  65 NW12      30.54R WCI -20
WINONA         CLOUDY     3  -9  55 NW12      30.59S WCI -13
AUSTIN         CLOUDY     0  -8  71 NW9       30.56R WCI -16
PRESTON        CLOUDY    -3 -13  63 NW8       30.53S WCI -18
$$
ABBREVIATIONS USED IN REMARKS
   TC - TEMPERATURES IN CELSIUS
  WCI - WIND CHILL INDEX
   HX - HEAT INDEX
  VSB - VISIBILITY
$$




USA.gov is the U.S. government's official web portal to all federal, state and local government web resources and services.